Find Starlink 37726

NORAD ID: 69124 Int'l Des: 2026-110 Owner: SPXS Country: US Constellation: starlink operational
LEOCIRCULARRETROGRADE

現在のビュー

3D地球を読み込み中...

About Starlink 37726

Starlink 37726 (NORAD 69124) is a starlink constellation satellite (v2 mini) launched May 20, 2026 by SPXS of US. It operates in LEO, CIRCULAR, RETROGRADE orbit with a mass of 575.00 kg.

次回通過

Passes for default location (London). Set your location on the main map for personalized predictions.

高度履歴

Loading altitude history...

軌道要素

1 69124U 26110A 26235.51978159 .00012918 00000-0 40178-3 0 9999
2 69124 97.2890 71.0534 0001883 87.7130 272.4329 15.33444347 15930
Epoch: Aug 23, 2026 • Age: 19 hours

現在のステータス

高度 470.3 km
遠地点 / 近地点 N/A
速度 7.64 km/s
衛星直下点 39.58°N, 18.41°W
打ち上げ日 May 20, 2026
運用期間 0.2 years
タイプ internet

技術仕様

分類 Payload
質量 575.00 kg
乾燥質量 530.00 kg
総質量 575.00 kg
長さ 0.30 m
直径 4.10 m
スパン 29.00 m
形状 Box + pan
製造者 SPXS
バスタイプ Starlink V2MO
フェーズステータス In Orbit
所有者/国 SPXS/US

Most Searched